contact:dominique.lefevre@mio.osupytheas.fr, maurice.libes@osupytheas.fr, didier.mallarino@osupytheas.fr
Project:EMSO http://www.emso-fr.org/EMSO-France
Depth: 2436.0 m
Title:EMSO Ligure Ouest : Data MII capteur MICROCAT
DateTime_Computer,Latitude,Longitude,Temperature,Conductivity,Pressure,DateTime_Instrument
DateTime_Computer,Latitude,Longitude,degC,S m-1,dbar,DateTime_Instrument
2017-11-04T00:00:52Z,42.805,6.029,13.2968,4.59981,2471.949,2017-11-04T02:02:18Z
2017-11-04T00:02:26Z,42.805,6.029,13.2964,4.59970,2471.942,2017-11-04T02:03:53Z
2017-11-04T00:04:01Z,42.805,6.029,13.2961,4.59985,2471.957,2017-11-04T02:05:28Z
2017-11-04T00:05:36Z,42.805,6.029,13.2962,4.59981,2471.957,2017-11-04T02:07:02Z
2017-11-04T00:07:11Z,42.805,6.029,13.2967,4.59983,2471.934,2017-11-04T02:08:37Z
2017-11-04T00:08:46Z,42.805,6.029,13.2958,4.59978,2471.942,2017-11-04T02:10:12Z
2017-11-04T00:10:21Z,42.805,6.029,13.2957,4.59975,2471.934,2017-11-04T02:11:47Z
2017-11-04T00:11:55Z,42.805,6.029,13.2966,4.59974,2471.979,2017-11-04T02:13:22Z
2017-11-04T00:13:30Z,42.805,6.029,13.2966,4.59975,2471.942,2017-11-04T02:14:57Z
2017-11-04T00:15:05Z,42.805,6.029,13.2966,4.59978,2471.957,2017-11-04T02:16:31Z
2017-11-04T00:16:40Z,42.805,6.029,13.2966,4.59977,2471.912,2017-11-04T02:18:06Z
2017-11-04T00:18:15Z,42.805,6.029,13.2961,4.59970,2471.934,2017-11-04T02:19:41Z
2017-11-04T00:19:50Z,42.805,6.029,13.2961,4.59979,2471.957,2017-11-04T02:21:16Z
2017-11-04T00:21:24Z,42.805,6.029,13.2975,4.59977,2471.957,2017-11-04T02:22:51Z
2017-11-04T00:22:59Z,42.805,6.029,13.2970,4.59983,2471.934,2017-11-04T02:24:26Z
2017-11-04T00:24:34Z,42.805,6.029,13.2975,4.59967,2471.897,2017-11-04T02:26:00Z
2017-11-04T00:26:09Z,42.805,6.029,13.2945,4.60009,2471.957,2017-11-04T02:27:35Z
2017-11-04T00:27:44Z,42.805,6.029,13.2959,4.59983,2471.897,2017-11-04T02:29:10Z
2017-11-04T00:29:19Z,42.805,6.029,13.2966,4.59981,2471.934,2017-11-04T02:30:45Z
2017-11-04T00:30:53Z,42.805,6.029,13.2979,4.59997,2471.897,2017-11-04T02:32:20Z
2017-11-04T00:32:28Z,42.805,6.029,13.2969,4.59977,2471.957,2017-11-04T02:33:55Z
2017-11-04T00:34:03Z,42.805,6.029,13.2952,4.59990,2471.934,2017-11-04T02:35:29Z
2017-11-04T00:35:38Z,42.805,6.029,13.2969,4.59994,2471.912,2017-11-04T02:37:04Z
2017-11-04T00:37:13Z,42.805,6.029,13.2965,4.60017,2471.942,2017-11-04T02:38:39Z
2017-11-04T00:38:48Z,42.805,6.029,13.2954,4.59983,2471.934,2017-11-04T02:40:14Z
2017-11-04T00:40:22Z,42.805,6.029,13.2957,4.59992,2471.912,2017-11-04T02:41:49Z
2017-11-04T00:41:57Z,42.805,6.029,13.2963,4.60004,2471.957,2017-11-04T02:43:24Z
2017-11-04T00:43:32Z,42.805,6.029,13.2963,4.60005,2471.934,2017-11-04T02:44:58Z
2017-11-04T00:45:07Z,42.805,6.029,13.2979,4.59991,2471.934,2017-11-04T02:46:33Z
2017-11-04T00:46:42Z,42.805,6.029,13.2990,4.59978,2471.934,2017-11-04T02:48:08Z
2017-11-04T00:48:17Z,42.805,6.029,13.2967,4.59997,2471.919,2017-11-04T02:49:43Z
2017-11-04T00:49:51Z,42.805,6.029,13.2945,4.59978,2471.912,2017-11-04T02:51:18Z
2017-11-04T00:51:26Z,42.805,6.029,13.2957,4.60006,2471.912,2017-11-04T02:52:53Z
2017-11-04T00:53:01Z,42.805,6.029,13.2956,4.59970,2471.897,2017-11-04T02:54:27Z
2017-11-04T00:54:36Z,42.805,6.029,13.2968,4.60005,2471.912,2017-11-04T02:56:02Z
2017-11-04T00:56:11Z,42.805,6.029,13.2967,4.59979,2471.934,2017-11-04T02:57:37Z
2017-11-04T00:57:46Z,42.805,6.029,13.2987,4.60003,2471.912,2017-11-04T02:59:12Z
2017-11-04T00:59:20Z,42.805,6.029,13.2977,4.59992,2471.912,2017-11-04T03:00:47Z
2017-11-04T01:00:55Z,42.805,6.029,13.2957,4.59991,2471.897,2017-11-04T03:02:22Z
2017-11-04T01:02:30Z,42.805,6.029,13.2957,4.59981,2471.912,2017-11-04T03:03:56Z
2017-11-04T01:04:05Z,42.805,6.029,13.2968,4.59979,2471.912,2017-11-04T03:05:31Z
2017-11-04T01:05:40Z,42.805,6.029,13.2975,4.59972,2471.912,2017-11-04T03:07:06Z
2017-11-04T01:07:15Z,42.805,6.029,13.2954,4.59972,2471.912,2017-11-04T03:08:41Z
2017-11-04T01:08:49Z,42.805,6.029,13.2964,4.59981,2471.897,2017-11-04T03:10:16Z
2017-11-04T01:10:24Z,42.805,6.029,13.2954,4.59990,2471.912,2017-11-04T03:11:51Z
2017-11-04T01:11:59Z,42.805,6.029,13.2955,4.59981,2471.897,2017-11-04T03:13:25Z
2017-11-04T01:13:34Z,42.805,6.029,13.2961,4.59994,2471.897,2017-11-04T03:15:00Z
2017-11-04T01:15:09Z,42.805,6.029,13.2960,4.59981,2471.912,2017-11-04T03:16:35Z
2017-11-04T01:16:44Z,42.805,6.029,13.2951,4.59988,2471.934,2017-11-04T03:18:10Z
2017-11-04T01:18:18Z,42.805,6.029,13.2958,4.60000,2471.912,2017-11-04T03:19:45Z
2017-11-04T01:19:53Z,42.805,6.029,13.2963,4.60000,2471.912,2017-11-04T03:21:20Z
2017-11-04T01:21:28Z,42.805,6.029,13.2955,4.59985,2471.919,2017-11-04T03:22:54Z
2017-11-04T01:23:03Z,42.805,6.029,13.2966,4.59989,2471.897,2017-11-04T03:24:29Z
2017-11-04T01:24:38Z,42.805,6.029,13.2961,4.59982,2471.912,2017-11-04T03:26:04Z
2017-11-04T01:26:13Z,42.805,6.029,13.2965,4.59975,2471.912,2017-11-04T03:27:39Z
2017-11-04T01:27:47Z,42.805,6.029,13.2959,4.60006,2471.912,2017-11-04T03:29:14Z
2017-11-04T01:29:22Z,42.805,6.029,13.2966,4.59967,2471.897,2017-11-04T03:30:49Z
2017-11-04T01:30:57Z,42.805,6.029,13.2952,4.59979,2471.897,2017-11-04T03:32:23Z
2017-11-04T01:32:32Z,42.805,6.029,13.2958,4.59988,2471.889,2017-11-04T03:33:58Z
2017-11-04T01:34:07Z,42.805,6.029,13.2957,4.59967,2471.942,2017-11-04T03:35:33Z
2017-11-04T01:35:41Z,42.805,6.029,13.2955,4.59970,2471.897,2017-11-04T03:37:08Z
2017-11-04T01:37:16Z,42.805,6.029,13.2950,4.59978,2471.912,2017-11-04T03:38:43Z
2017-11-04T01:38:51Z,42.805,6.029,13.2952,4.59998,2471.912,2017-11-04T03:40:18Z
2017-11-04T01:40:26Z,42.805,6.029,13.2951,4.60001,2471.897,2017-11-04T03:41:52Z
2017-11-04T01:42:01Z,42.805,6.029,13.2975,4.59997,2471.912,2017-11-04T03:43:27Z
2017-11-04T01:43:36Z,42.805,6.029,13.2975,4.60006,2471.897,2017-11-04T03:45:02Z
2017-11-04T01:45:11Z,42.805,6.029,13.2963,4.60015,2471.934,2017-11-04T03:46:37Z
2017-11-04T01:46:45Z,42.805,6.029,13.2974,4.60009,2471.934,2017-11-04T03:48:12Z
2017-11-04T01:48:20Z,42.805,6.029,13.2959,4.60001,2471.912,2017-11-04T03:49:47Z
2017-11-04T01:49:55Z,42.805,6.029,13.2967,4.60009,2471.919,2017-11-04T03:51:21Z
2017-11-04T01:51:30Z,42.805,6.029,13.2965,4.60017,2471.919,2017-11-04T03:52:56Z
2017-11-04T01:53:05Z,42.805,6.029,13.2971,4.60016,2471.912,2017-11-04T03:54:31Z
2017-11-04T01:54:39Z,42.805,6.029,13.2981,4.60030,2471.934,2017-11-04T03:56:06Z
2017-11-04T01:56:14Z,42.805,6.029,13.2978,4.60023,2471.897,2017-11-04T03:57:41Z
2017-11-04T01:57:49Z,42.805,6.029,13.2967,4.60015,2471.912,2017-11-04T03:59:15Z
2017-11-04T01:59:24Z,42.805,6.029,13.2973,4.60018,2471.934,2017-11-04T04:00:50Z
2017-11-04T02:00:59Z,42.805,6.029,13.2981,4.60014,2471.919,2017-11-04T04:02:25Z
2017-11-04T02:02:34Z,42.805,6.029,13.2965,4.60023,2471.957,2017-11-04T04:04:00Z
2017-11-04T02:04:08Z,42.805,6.029,13.2974,4.60032,2471.957,2017-11-04T04:05:35Z
2017-11-04T02:05:43Z,42.805,6.029,13.2979,4.60027,2471.897,2017-11-04T04:07:10Z
2017-11-04T02:07:18Z,42.805,6.029,13.2979,4.60018,2471.957,2017-11-04T04:08:44Z
2017-11-04T02:08:53Z,42.805,6.029,13.2981,4.60029,2471.957,2017-11-04T04:10:19Z
2017-11-04T02:10:28Z,42.805,6.029,13.2966,4.60023,2471.919,2017-11-04T04:11:54Z
2017-11-04T02:12:03Z,42.805,6.029,13.2963,4.59972,2471.934,2017-11-04T04:13:29Z
2017-11-04T02:13:37Z,42.805,6.029,13.2978,4.60009,2471.934,2017-11-04T04:15:04Z
2017-11-04T02:15:12Z,42.805,6.029,13.2979,4.59997,2471.934,2017-11-04T04:16:39Z
2017-11-04T02:16:47Z,42.805,6.029,13.2964,4.59984,2471.889,2017-11-04T04:18:13Z
2017-11-04T02:18:22Z,42.805,6.029,13.2983,4.60014,2471.934,2017-11-04T04:19:48Z
2017-11-04T02:19:57Z,42.805,6.029,13.2973,4.60010,2471.912,2017-11-04T04:21:23Z
2017-11-04T02:21:32Z,42.805,6.029,13.2968,4.60004,2471.934,2017-11-04T04:22:58Z
2017-11-04T02:23:06Z,42.805,6.029,13.2981,4.59984,2471.912,2017-11-04T04:24:33Z
2017-11-04T02:24:41Z,42.805,6.029,13.2974,4.60006,2471.934,2017-11-04T04:26:08Z
2017-11-04T02:26:16Z,42.805,6.029,13.2975,4.59991,2471.934,2017-11-04T04:27:42Z
2017-11-04T02:27:51Z,42.805,6.029,13.2972,4.59990,2471.912,2017-11-04T04:29:17Z
2017-11-04T02:29:26Z,42.805,6.029,13.2958,4.59979,2471.912,2017-11-04T04:30:52Z
2017-11-04T02:31:01Z,42.805,6.029,13.2962,4.60003,2471.934,2017-11-04T04:32:27Z
2017-11-04T02:32:35Z,42.805,6.029,13.2962,4.60002,2471.912,2017-11-04T04:34:02Z
2017-11-04T02:34:10Z,42.805,6.029,13.2957,4.60021,2471.957,2017-11-04T04:35:37Z
2017-11-04T02:35:45Z,42.805,6.029,13.2972,4.59994,2471.919,2017-11-04T04:37:11Z
2017-11-04T02:37:20Z,42.805,6.029,13.2966,4.60026,2471.934,2017-11-04T04:38:46Z
2017-11-04T02:38:55Z,42.805,6.029,13.2968,4.59970,2471.942,2017-11-04T04:40:21Z
2017-11-04T02:40:30Z,42.805,6.029,13.2958,4.60001,2471.957,2017-11-04T04:41:56Z
2017-11-04T02:42:04Z,42.805,6.029,13.2962,4.59980,2471.934,2017-11-04T04:43:31Z
2017-11-04T02:43:39Z,42.805,6.029,13.2951,4.60000,2471.957,2017-11-04T04:45:06Z
2017-11-04T02:45:14Z,42.805,6.029,13.2965,4.59999,2471.979,2017-11-04T04:46:40Z
2017-11-04T02:46:49Z,42.805,6.029,13.2965,4.60009,2471.934,2017-11-04T04:48:15Z
2017-11-04T02:48:24Z,42.805,6.029,13.2973,4.60039,2471.934,2017-11-04T04:49:50Z
2017-11-04T02:49:59Z,42.805,6.029,13.2980,4.59990,2471.934,2017-11-04T04:51:25Z
2017-11-04T02:51:33Z,42.805,6.029,13.2969,4.60014,2471.957,2017-11-04T04:53:00Z
2017-11-04T02:53:08Z,42.805,6.029,13.2978,4.59976,2471.897,2017-11-04T04:54:35Z
2017-11-04T02:54:43Z,42.805,6.029,13.2954,4.59987,2471.912,2017-11-04T04:56:09Z
2017-11-04T02:56:18Z,42.805,6.029,13.2961,4.60001,2471.942,2017-11-04T04:57:44Z
2017-11-04T02:57:53Z,42.805,6.029,13.2959,4.60004,2471.942,2017-11-04T04:59:19Z
2017-11-04T02:59:28Z,42.805,6.029,13.2964,4.59998,2471.957,2017-11-04T05:00:54Z
2017-11-04T03:01:02Z,42.805,6.029,13.2964,4.59985,2471.957,2017-11-04T05:02:29Z
2017-11-04T03:02:37Z,42.805,6.029,13.2970,4.59985,2471.979,2017-11-04T05:04:04Z
2017-11-04T03:04:12Z,42.805,6.029,13.2964,4.59983,2471.979,2017-11-04T05:05:38Z
2017-11-04T03:05:47Z,42.805,6.029,13.2961,4.60009,2471.957,2017-11-04T05:07:13Z
2017-11-04T03:07:22Z,42.805,6.029,13.2961,4.60018,2471.964,2017-11-04T05:08:48Z
2017-11-04T03:08:57Z,42.805,6.029,13.2971,4.60014,2471.957,2017-11-04T05:10:23Z
2017-11-04T03:10:31Z,42.805,6.029,13.2951,4.60016,2471.957,2017-11-04T05:11:58Z
2017-11-04T03:12:06Z,42.805,6.029,13.2971,4.60006,2471.979,2017-11-04T05:13:33Z
2017-11-04T03:13:41Z,42.805,6.029,13.2975,4.60003,2471.942,2017-11-04T05:15:07Z
2017-11-04T03:15:16Z,42.805,6.029,13.2969,4.59995,2471.957,2017-11-04T05:16:42Z
2017-11-04T03:16:51Z,42.805,6.029,13.2967,4.59982,2471.957,2017-11-04T05:18:17Z
2017-11-04T03:18:26Z,42.805,6.029,13.2963,4.59981,2471.964,2017-11-04T05:19:52Z
2017-11-04T03:20:00Z,42.805,6.029,13.2964,4.60017,2471.979,2017-11-04T05:21:27Z
2017-11-04T03:21:35Z,42.805,6.029,13.2964,4.60007,2471.987,2017-11-04T05:23:02Z
2017-11-04T03:23:10Z,42.805,6.029,13.2949,4.60015,2471.964,2017-11-04T05:24:36Z
2017-11-04T03:24:45Z,42.805,6.029,13.2970,4.60002,2471.979,2017-11-04T05:26:11Z
2017-11-04T03:26:20Z,42.805,6.029,13.2963,4.59978,2471.964,2017-11-04T05:27:46Z
2017-11-04T03:27:54Z,42.805,6.029,13.2967,4.60001,2471.964,2017-11-04T05:29:21Z
2017-11-04T03:29:29Z,42.805,6.029,13.2958,4.59983,2471.979,2017-11-04T05:30:56Z
2017-11-04T03:31:04Z,42.805,6.029,13.2953,4.59997,2471.987,2017-11-04T05:32:31Z
2017-11-04T03:32:39Z,42.805,6.029,13.2966,4.59984,2472.002,2017-11-04T05:34:05Z
2017-11-04T03:34:14Z,42.805,6.029,13.2968,4.59990,2472.016,2017-11-04T05:35:40Z
2017-11-04T03:35:49Z,42.805,6.029,13.2965,4.59986,2471.987,2017-11-04T05:37:15Z
2017-11-04T03:37:24Z,42.805,6.029,13.2953,4.59978,2471.979,2017-11-04T05:38:50Z
2017-11-04T03:38:58Z,42.805,6.029,13.2945,4.59984,2471.987,2017-11-04T05:40:25Z
2017-11-04T03:40:33Z,42.805,6.029,13.2947,4.59987,2472.002,2017-11-04T05:42:00Z
2017-11-04T03:42:08Z,42.805,6.029,13.2954,4.59990,2471.979,2017-11-04T05:43:34Z
2017-11-04T03:43:43Z,42.805,6.029,13.2966,4.59998,2472.002,2017-11-04T05:45:09Z
2017-11-04T03:45:18Z,42.805,6.029,13.2961,4.59982,2472.024,2017-11-04T05:46:44Z
2017-11-04T03:46:52Z,42.805,6.029,13.2952,4.59982,2472.01,2017-11-04T05:48:19Z
2017-11-04T03:48:27Z,42.805,6.029,13.2958,4.59982,2472.002,2017-11-04T05:49:54Z
2017-11-04T03:50:02Z,42.805,6.029,13.2954,4.59984,2472.002,2017-11-04T05:51:29Z
2017-11-04T03:51:37Z,42.805,6.029,13.2950,4.59998,2472.01,2017-11-04T05:53:03Z
2017-11-04T03:53:12Z,42.805,6.029,13.2952,4.59973,2472.01,2017-11-04T05:54:38Z
2017-11-04T03:54:47Z,42.805,6.029,13.2950,4.59978,2472.024,2017-11-04T05:56:13Z
2017-11-04T03:56:21Z,42.805,6.029,13.2967,4.59975,2472.047,2017-11-04T05:57:48Z
2017-11-04T03:57:56Z,42.805,6.029,13.2960,4.59970,2472.002,2017-11-04T05:59:23Z
2017-11-04T03:59:31Z,42.805,6.029,13.2953,4.59980,2472.047,2017-11-04T06:00:58Z
2017-11-04T04:01:06Z,42.805,6.029,13.2957,4.59991,2472.024,2017-11-04T06:02:32Z
2017-11-04T04:02:41Z,42.805,6.029,13.2954,4.59998,2472.024,2017-11-04T06:04:07Z
2017-11-04T04:04:16Z,42.805,6.029,13.2961,4.60010,2472.002,2017-11-04T06:05:42Z
2017-11-04T04:05:50Z,42.805,6.029,13.2964,4.59965,2472.024,2017-11-04T06:07:17Z
2017-11-04T04:07:25Z,42.805,6.029,13.2970,4.59967,2472.047,2017-11-04T06:08:52Z
2017-11-04T04:09:00Z,42.805,6.029,13.2946,4.59977,2472.047,2017-11-04T06:10:26Z
2017-11-04T04:10:35Z,42.805,6.029,13.2954,4.59981,2472.069,2017-11-04T06:12:01Z
2017-11-04T04:12:10Z,42.805,6.029,13.2945,4.59979,2472.032,2017-11-04T06:13:36Z
2017-11-04T04:13:45Z,42.805,6.029,13.2953,4.59971,2472.069,2017-11-04T06:15:11Z
2017-11-04T04:15:19Z,42.805,6.029,13.2953,4.59967,2472.047,2017-11-04T06:16:46Z
2017-11-04T04:16:54Z,42.805,6.029,13.2964,4.59975,2472.069,2017-11-04T06:18:21Z
2017-11-04T04:18:29Z,42.805,6.029,13.2957,4.59969,2472.069,2017-11-04T06:19:55Z
2017-11-04T04:20:04Z,42.805,6.029,13.2966,4.60022,2472.01,2017-11-04T06:21:30Z
2017-11-04T04:21:39Z,42.805,6.029,13.2951,4.59974,2472.024,2017-11-04T06:23:05Z
2017-11-04T04:23:14Z,42.805,6.029,13.2950,4.59979,2472.069,2017-11-04T06:24:40Z
2017-11-04T04:24:48Z,42.805,6.029,13.2955,4.59984,2472.069,2017-11-04T06:26:15Z
2017-11-04T04:26:23Z,42.805,6.029,13.2954,4.59975,2472.069,2017-11-04T06:27:50Z
2017-11-04T04:27:58Z,42.805,6.029,13.2943,4.59986,2472.047,2017-11-04T06:29:24Z
2017-11-04T04:29:33Z,42.805,6.029,13.2958,4.59987,2472.069,2017-11-04T06:30:59Z
2017-11-04T04:31:08Z,42.805,6.029,13.2955,4.59981,2472.069,2017-11-04T06:32:34Z
2017-11-04T04:32:43Z,42.805,6.029,13.2955,4.59972,2472.047,2017-11-04T06:34:09Z
2017-11-04T04:34:17Z,42.805,6.029,13.2961,4.59981,2472.055,2017-11-04T06:35:44Z
2017-11-04T04:35:52Z,42.805,6.029,13.2952,4.59975,2472.077,2017-11-04T06:37:19Z
2017-11-04T04:37:27Z,42.805,6.029,13.2950,4.59982,2472.069,2017-11-04T06:38:53Z
2017-11-04T04:39:02Z,42.805,6.029,13.2954,4.59983,2472.055,2017-11-04T06:40:28Z
2017-11-04T04:40:37Z,42.805,6.029,13.2958,4.59995,2472.092,2017-11-04T06:42:03Z
2017-11-04T04:42:12Z,42.805,6.029,13.2970,4.59975,2472.077,2017-11-04T06:43:38Z
2017-11-04T04:43:46Z,42.805,6.029,13.2958,4.59975,2472.069,2017-11-04T06:45:13Z
2017-11-04T04:45:21Z,42.805,6.029,13.2958,4.59964,2472.055,2017-11-04T06:46:48Z
2017-11-04T04:46:56Z,42.805,6.029,13.2960,4.59996,2472.092,2017-11-04T06:48:22Z
2017-11-04T04:48:31Z,42.805,6.029,13.2952,4.59991,2472.092,2017-11-04T06:49:57Z
2017-11-04T04:50:06Z,42.805,6.029,13.2966,4.59984,2472.092,2017-11-04T06:51:32Z
2017-11-04T04:51:41Z,42.805,6.029,13.2959,4.59978,2472.092,2017-11-04T06:53:07Z
2017-11-04T04:53:15Z,42.805,6.029,13.2951,4.59984,2472.092,2017-11-04T06:54:42Z
2017-11-04T04:54:50Z,42.805,6.029,13.2957,4.59972,2472.092,2017-11-04T06:56:17Z
2017-11-04T04:56:25Z,42.805,6.029,13.2951,4.59981,2472.092,2017-11-04T06:57:51Z
2017-11-04T04:58:00Z,42.805,6.029,13.2947,4.59970,2472.077,2017-11-04T06:59:26Z
2017-11-04T04:59:35Z,42.805,6.029,13.2951,4.59995,2472.077,2017-11-04T07:01:01Z
2017-11-04T05:01:10Z,42.805,6.029,13.2957,4.59975,2472.115,2017-11-04T07:02:36Z
2017-11-04T05:02:44Z,42.805,6.029,13.2956,4.59972,2472.115,2017-11-04T07:04:11Z
2017-11-04T05:04:19Z,42.805,6.029,13.2949,4.59979,2472.092,2017-11-04T07:05:46Z
2017-11-04T05:05:54Z,42.805,6.029,13.2958,4.59970,2472.137,2017-11-04T07:07:20Z
2017-11-04T05:07:29Z,42.805,6.029,13.2954,4.59990,2472.1,2017-11-04T07:08:55Z
2017-11-04T05:09:04Z,42.805,6.029,13.2970,4.59985,2472.1,2017-11-04T07:10:30Z
2017-11-04T05:10:39Z,42.805,6.029,13.2957,4.59975,2472.115,2017-11-04T07:12:05Z
2017-11-04T05:12:13Z,42.805,6.029,13.2954,4.59982,2472.092,2017-11-04T07:13:40Z
2017-11-04T05:13:48Z,42.805,6.029,13.2951,4.59984,2472.115,2017-11-04T07:15:15Z
2017-11-04T05:15:23Z,42.805,6.029,13.2953,4.59984,2472.115,2017-11-04T07:16:49Z
2017-11-04T05:16:58Z,42.805,6.029,13.2948,4.59978,2472.092,2017-11-04T07:18:24Z
2017-11-04T05:18:33Z,42.805,6.029,13.2954,4.59968,2472.092,2017-11-04T07:19:59Z
2017-11-04T05:20:08Z,42.805,6.029,13.2944,4.59975,2472.1,2017-11-04T07:21:34Z
2017-11-04T05:21:42Z,42.805,6.029,13.2952,4.59978,2472.115,2017-11-04T07:23:09Z
2017-11-04T05:23:17Z,42.805,6.029,13.2948,4.59982,2472.115,2017-11-04T07:24:44Z
2017-11-04T05:24:52Z,42.805,6.029,13.2951,4.59980,2472.123,2017-11-04T07:26:18Z
2017-11-04T05:26:27Z,42.805,6.029,13.2964,4.59992,2472.123,2017-11-04T07:27:53Z
2017-11-04T05:28:02Z,42.805,6.029,13.2958,4.59980,2472.16,2017-11-04T07:29:28Z
2017-11-04T05:29:37Z,42.805,6.029,13.2944,4.59983,2472.137,2017-11-04T07:31:03Z
2017-11-04T05:31:11Z,42.805,6.029,13.2949,4.59968,2472.1,2017-11-04T07:32:38Z
2017-11-04T05:32:46Z,42.805,6.029,13.2946,4.59974,2472.115,2017-11-04T07:34:13Z
2017-11-04T05:34:21Z,42.805,6.029,13.2961,4.59973,2472.123,2017-11-04T07:35:47Z
2017-11-04T05:35:56Z,42.805,6.029,13.2961,4.59967,2472.145,2017-11-04T07:37:22Z
2017-11-04T05:37:31Z,42.805,6.029,13.2949,4.59971,2472.137,2017-11-04T07:38:57Z
2017-11-04T05:39:05Z,42.805,6.029,13.2958,4.59976,2472.145,2017-11-04T07:40:32Z
2017-11-04T05:40:40Z,42.805,6.029,13.2948,4.59968,2472.137,2017-11-04T07:42:07Z
2017-11-04T05:42:15Z,42.805,6.029,13.2949,4.59970,2472.123,2017-11-04T07:43:42Z
2017-11-04T05:43:50Z,42.805,6.029,13.2951,4.59977,2472.145,2017-11-04T07:45:16Z
2017-11-04T05:45:25Z,42.805,6.029,13.2950,4.59983,2472.137,2017-11-04T07:46:51Z
2017-11-04T05:47:00Z,42.805,6.029,13.2948,4.59975,2472.123,2017-11-04T07:48:26Z
2017-11-04T05:48:34Z,42.805,6.029,13.2948,4.59978,2472.16,2017-11-04T07:50:01Z
2017-11-04T05:50:09Z,42.805,6.029,13.2950,4.59968,2472.115,2017-11-04T07:51:36Z
2017-11-04T05:51:44Z,42.805,6.029,13.2948,4.59978,2472.137,2017-11-04T07:53:11Z
2017-11-04T05:53:19Z,42.805,6.029,13.2948,4.59984,2472.145,2017-11-04T07:54:45Z
2017-11-04T05:54:54Z,42.805,6.029,13.2950,4.59968,2472.123,2017-11-04T07:56:20Z
2017-11-04T05:56:29Z,42.805,6.029,13.2961,4.59983,2472.115,2017-11-04T07:57:55Z
2017-11-04T05:58:03Z,42.805,6.029,13.2967,4.59968,2472.16,2017-11-04T07:59:30Z
2017-11-04T05:59:38Z,42.805,6.029,13.2949,4.59964,2472.16,2017-11-04T08:01:05Z
2017-11-04T06:01:13Z,42.805,6.029,13.2952,4.59976,2472.168,2017-11-04T08:02:39Z
2017-11-04T06:02:48Z,42.805,6.029,13.2949,4.59979,2472.16,2017-11-04T08:04:14Z
2017-11-04T06:04:23Z,42.805,6.029,13.2954,4.59978,2472.16,2017-11-04T08:05:49Z
2017-11-04T06:05:58Z,42.805,6.029,13.2961,4.59978,2472.16,2017-11-04T08:07:24Z
2017-11-04T06:07:32Z,42.805,6.029,13.2949,4.59972,2472.137,2017-11-04T08:08:59Z
2017-11-04T06:09:07Z,42.805,6.029,13.2944,4.59973,2472.16,2017-11-04T08:10:34Z
2017-11-04T06:10:42Z,42.805,6.029,13.2957,4.59978,2472.16,2017-11-04T08:12:08Z
2017-11-04T06:12:17Z,42.805,6.029,13.2950,4.59967,2472.16,2017-11-04T08:13:43Z
2017-11-04T06:13:52Z,42.805,6.029,13.2951,4.59987,2472.1,2017-11-04T08:15:18Z
2017-11-04T06:15:27Z,42.805,6.029,13.2948,4.59978,2472.16,2017-11-04T08:16:53Z
2017-11-04T06:17:01Z,42.805,6.029,13.2946,4.59972,2472.16,2017-11-04T08:18:28Z
2017-11-04T06:18:36Z,42.805,6.029,13.2945,4.59979,2472.16,2017-11-04T08:20:03Z
2017-11-04T06:20:11Z,42.805,6.029,13.2950,4.59970,2472.182,2017-11-04T08:21:37Z
2017-11-04T06:21:46Z,42.805,6.029,13.2949,4.59972,2472.16,2017-11-04T08:23:12Z
2017-11-04T06:23:21Z,42.805,6.029,13.2951,4.59976,2472.145,2017-11-04T08:24:47Z
2017-11-04T06:24:56Z,42.805,6.029,13.2950,4.59963,2472.182,2017-11-04T08:26:22Z
2017-11-04T06:26:30Z,42.805,6.029,13.2950,4.59966,2472.182,2017-11-04T08:27:57Z
2017-11-04T06:28:05Z,42.805,6.029,13.2948,4.59970,2472.168,2017-11-04T08:29:32Z
2017-11-04T06:29:40Z,42.805,6.029,13.2945,4.59977,2472.16,2017-11-04T08:31:06Z
2017-11-04T06:31:15Z,42.805,6.029,13.2946,4.59980,2472.16,2017-11-04T08:32:41Z
2017-11-04T06:32:50Z,42.805,6.029,13.2951,4.59964,2472.16,2017-11-04T08:34:16Z
2017-11-04T06:34:25Z,42.805,6.029,13.2948,4.59978,2472.145,2017-11-04T08:35:51Z
2017-11-04T06:35:59Z,42.805,6.029,13.2952,4.59977,2472.16,2017-11-04T08:37:26Z
2017-11-04T06:37:34Z,42.805,6.029,13.2950,4.59975,2472.16,2017-11-04T08:39:01Z
2017-11-04T06:39:09Z,42.805,6.029,13.2950,4.59965,2472.168,2017-11-04T08:40:35Z
2017-11-04T06:40:44Z,42.805,6.029,13.2951,4.59970,2472.145,2017-11-04T08:42:10Z
2017-11-04T06:42:19Z,42.805,6.029,13.2950,4.59968,2472.137,2017-11-04T08:43:45Z
2017-11-04T06:43:54Z,42.805,6.029,13.2943,4.59972,2472.16,2017-11-04T08:45:20Z
2017-11-04T06:45:28Z,42.805,6.029,13.2950,4.59967,2472.137,2017-11-04T08:46:55Z
2017-11-04T06:47:03Z,42.805,6.029,13.2953,4.59972,2472.16,2017-11-04T08:48:30Z
2017-11-04T06:48:38Z,42.805,6.029,13.2947,4.59965,2472.16,2017-11-04T08:50:04Z
2017-11-04T06:50:13Z,42.805,6.029,13.2948,4.59970,2472.123,2017-11-04T08:51:39Z
2017-11-04T06:51:48Z,42.805,6.029,13.2948,4.59964,2472.123,2017-11-04T08:53:14Z
2017-11-04T06:53:23Z,42.805,6.029,13.2950,4.59978,2472.182,2017-11-04T08:54:49Z
2017-11-04T06:54:57Z,42.805,6.029,13.2953,4.59966,2472.182,2017-11-04T08:56:24Z
2017-11-04T06:56:32Z,42.805,6.029,13.2954,4.59966,2472.145,2017-11-04T08:57:59Z
2017-11-04T06:58:07Z,42.805,6.029,13.2941,4.59975,2472.168,2017-11-04T08:59:33Z
2017-11-04T06:59:42Z,42.805,6.029,13.2949,4.59977,2472.182,2017-11-04T09:01:08Z
2017-11-04T07:01:17Z,42.805,6.029,13.2954,4.59970,2472.182,2017-11-04T09:02:43Z
2017-11-04T07:02:52Z,42.805,6.029,13.2957,4.59971,2472.145,2017-11-04T09:04:18Z
2017-11-04T07:04:26Z,42.805,6.029,13.2948,4.59980,2472.16,2017-11-04T09:05:53Z
2017-11-04T07:06:01Z,42.805,6.029,13.2950,4.59975,2472.16,2017-11-04T09:07:28Z
2017-11-04T07:07:36Z,42.805,6.029,13.2953,4.59967,2472.175,2017-11-04T09:09:02Z
2017-11-04T07:09:11Z,42.805,6.029,13.2952,4.59967,2472.16,2017-11-04T09:10:37Z
2017-11-04T07:10:46Z,42.805,6.029,13.2950,4.59967,2472.175,2017-11-04T09:12:12Z
2017-11-04T07:12:21Z,42.805,6.029,13.2956,4.59975,2472.182,2017-11-04T09:13:47Z
2017-11-04T07:13:55Z,42.805,6.029,13.2950,4.59964,2472.145,2017-11-04T09:15:22Z
2017-11-04T07:15:30Z,42.805,6.029,13.2952,4.59972,2472.16,2017-11-04T09:16:57Z
2017-11-04T07:17:05Z,42.805,6.029,13.2951,4.59964,2472.182,2017-11-04T09:18:31Z
2017-11-04T07:18:40Z,42.805,6.029,13.2945,4.59967,2472.175,2017-11-04T09:20:06Z
2017-11-04T07:20:15Z,42.805,6.029,13.2950,4.59973,2472.16,2017-11-04T09:21:41Z
2017-11-04T07:21:50Z,42.805,6.029,13.2948,4.59970,2472.182,2017-11-04T09:23:16Z
2017-11-04T07:23:24Z,42.805,6.029,13.2958,4.59968,2472.16,2017-11-04T09:24:51Z
2017-11-04T07:24:59Z,42.805,6.029,13.2951,4.59971,2472.137,2017-11-04T09:26:26Z
2017-11-04T07:26:34Z,42.805,6.029,13.2951,4.59968,2472.137,2017-11-04T09:28:00Z
2017-11-04T07:28:09Z,42.805,6.029,13.2946,4.59974,2472.16,2017-11-04T09:29:35Z
2017-11-04T07:29:44Z,42.805,6.029,13.2951,4.59972,2472.137,2017-11-04T09:31:10Z
2017-11-04T07:31:19Z,42.805,6.029,13.2954,4.59972,2472.123,2017-11-04T09:32:45Z
2017-11-04T07:32:53Z,42.805,6.029,13.2948,4.59978,2472.145,2017-11-04T09:34:20Z
2017-11-04T07:34:28Z,42.805,6.029,13.2958,4.59982,2472.145,2017-11-04T09:35:55Z
2017-11-04T07:36:03Z,42.805,6.029,13.2950,4.59978,2472.16,2017-11-04T09:37:29Z
2017-11-04T07:37:38Z,42.805,6.029,13.2955,4.59969,2472.182,2017-11-04T09:39:04Z
2017-11-04T07:39:13Z,42.805,6.029,13.2948,4.59968,2472.182,2017-11-04T09:40:39Z
2017-11-04T07:40:48Z,42.805,6.029,13.2952,4.59972,2472.16,2017-11-04T09:42:14Z
2017-11-04T07:42:22Z,42.805,6.029,13.2954,4.59972,2472.16,2017-11-04T09:43:49Z
2017-11-04T07:43:57Z,42.805,6.029,13.2955,4.59972,2472.16,2017-11-04T09:45:24Z
2017-11-04T07:45:32Z,42.805,6.029,13.2964,4.59972,2472.145,2017-11-04T09:46:58Z